Location: North Evanston
(42.0634°N, 87.6976°W)
Time: 23:01:43
(UTC+00:00)

Transit 2A - Pass Details

Date: 14 May 2026
Orbit: 595 x 949 km, 66.7° (Epoch: 5 June)

Event Time Altitude Azimuth Distance (km) Brightness Sun altitude
Rises 04:33:21 0° 341° (NNW) 3,253 10.6 -27.0°
Reaches altitude 10° 04:38:39 10° 26° (NNE) 2,199 8.9 -27.3°
Maximum altitude 04:39:09 10° 31° (NNE) 2,179 8.8 -27.3°
Drops below altitude 10° 04:39:37 10° 37° (NE) 2,177 8.7 -27.3°
Enters shadow 04:42:57 - 71° (ENE) 2,588 8.8 -27.5°
Sets 04:44:33 0° 83° (E) 2,982 - -27.6°
